Location: Poughquag
(41.6090°N, 73.6820°W)
Time: 12:25:16
(UTC-04:00)

Courier 1B Rocket - All Passes

Search period start: 20 July 2024 00:00
Search period end: 30 July 2024 00:00
Orbit: 920 x 1201 km, 28.2° (Epoch: 19 July)

Date Brightness Start Highest point End Pass type
(mag) Time Alt. Az. Time Alt. Az. Time Alt. Az.
20 Jul - 14:52:12 10° SSW 14:57:10 18° SSE 15:02:06 10° ESE daylight
20 Jul - 16:43:30 10° SW 16:49:54 28° S 16:56:08 10° ESE daylight
20 Jul - 18:36:32 10° WSW 18:42:44 27° S 18:48:40 10° SE daylight
20 Jul - 20:31:11 10° WSW 20:35:17 16° SSW 20:39:15 10° S daylight
21 Jul - 13:52:28 10° S 13:56:09 14° SSE 13:59:51 10° SE daylight
21 Jul - 15:42:37 10° SW 15:48:48 26° SSE 15:54:54 10° ESE daylight
21 Jul - 17:35:12 10° WSW 17:41:40 29° S 17:47:55 10° SE daylight
21 Jul - 19:29:06 10° WSW 19:34:21 20° SSW 19:39:25 10° SSE daylight
22 Jul - 14:41:59 10° SSW 14:47:43 23° SSE 14:53:26 10° ESE daylight
22 Jul - 16:33:59 10° SW 16:40:32 30° S 16:46:57 10° ESE daylight
22 Jul - 18:27:24 10° WSW 18:33:21 24° SSW 18:39:06 10° SE daylight
22 Jul - 20:23:25 10° SW 20:25:48 12° SSW 20:28:11 10° S daylight
23 Jul - 13:41:43 10° SSW 13:46:40 18° SSE 13:51:41 10° ESE daylight
23 Jul - 15:32:58 10° SW 15:39:25 29° S 15:45:49 10° ESE daylight
23 Jul - 17:25:55 10° WSW 17:32:17 28° S 17:38:30 10° SE daylight
23 Jul - 19:20:29 10° WSW 19:24:54 16° SSW 19:29:14 10° SSE daylight
24 Jul - 12:42:07 10° S 12:45:42 14° SSE 12:49:20 10° SE daylight
24 Jul - 14:32:09 10° SW 14:38:17 26° SSE 14:44:30 10° ESE daylight
24 Jul - 16:24:38 10° WSW 16:31:10 30° S 16:37:38 10° SE daylight
24 Jul - 18:18:27 10° WSW 18:23:56 21° SSW 18:29:16 10° SSE daylight
25 Jul - 13:31:36 10° SSW 13:37:14 22° SSE 13:42:57 10° ESE daylight
25 Jul - 15:23:30 10° SW 15:30:02 30° S 15:36:35 10° ESE daylight
25 Jul - 17:16:49 10° WSW 17:22:53 25° SSW 17:28:52 10° SE daylight
25 Jul - 19:12:37 10° SW 19:15:25 12° SSW 19:18:12 10° S daylight
26 Jul - 12:31:27 10° SSW 12:36:13 18° SSE 12:41:06 10° ESE daylight
26 Jul - 14:22:34 10° SW 14:28:54 29° S 14:35:21 10° ESE daylight
26 Jul - 16:15:25 10° WSW 16:21:47 28° S 16:28:09 10° SE daylight
26 Jul - 18:09:52 10° WSW 18:14:28 17° SSW 18:19:01 10° SSE daylight
27 Jul - 11:32:00 10° S 11:35:17 13° SSE 11:38:38 10° SE daylight
27 Jul - 13:21:51 10° SW 13:27:49 26° SSE 13:33:57 10° ESE daylight
27 Jul - 15:14:12 10° WSW 15:20:39 30° S 15:27:12 10° SE daylight
27 Jul - 17:07:55 10° WSW 17:13:27 21° SSW 17:18:57 10° SSE daylight
28 Jul - 12:21:24 10° SSW 12:26:47 22° SSE 12:32:21 10° ESE daylight
28 Jul - 14:13:10 10° SW 14:19:31 30° S 14:26:03 10° ESE daylight
28 Jul - 16:06:22 10° WSW 16:12:23 25° SSW 16:18:26 10° SE daylight
28 Jul - 18:02:00 10° SW 18:04:58 12° SSW 18:07:56 10° S daylight
29 Jul - 11:21:22 10° SSW 11:25:49 17° SSE 11:30:26 10° ESE daylight
29 Jul - 13:12:20 10° SW 13:18:26 28° S 13:24:45 10° ESE daylight
29 Jul - 15:05:03 10° WSW 15:11:17 28° S 15:17:38 10° SE daylight
29 Jul - 16:59:23 10° WSW 17:04:00 17° SSW 17:08:37 10° SSE daylight
